Weather reports worldwide

Advertisment
Leesburg, fl, United States of America (2074602): temperature & dewpoint: 06.12.2019 23:00:00 - 12.12.2019 23:00:00 (EST)Leesburg, fl, United States of America (2074602): wind speed & gusts: 06.12.2019 23:00:00 - 12.12.2019 23:00:00 (EST)Leesburg, fl, United States of America (2074602): wind direction: 06.12.2019 23:00:00 - 12.12.2019 23:00:00 (EST)Leesburg, fl, United States of America (2074602): reduced air pressure: 06.12.2019 23:00:00 - 12.12.2019 23:00:00 (EST)Leesburg, fl, United States of America (2074602): visibility: 06.12.2019 23:00:00 - 12.12.2019 23:00:00 (EST)Leesburg, fl, United States of America (2074602): precipitation: 06.12.2019 23:00:00 - 12.12.2019 23:00:00 (EST)
Date & Time tt [°C] td [°C] ff [km/h] ff [kn] fx [km/h] fx [kn] dd ppp [hPa] vv [km] rr [mm]
12.12.2019 23:00:00 21,1 19,4 5 3 - - E 1021,7 13 0,0
12.12.2019 22:00:00 21,1 19,4 9 5 - - E 1022,3 15 0,3
12.12.2019 21:00:00 21,1 19,4 9 5 - - ENE 1022,2 4,8 2,5
12.12.2019 20:00:00 20,6 19,4 13 7 - - ENE 1022,3 3,2 2,3
12.12.2019 19:00:00 21,1 18,9 15 8 - - NE 1022,5 16 0,0
12.12.2019 18:00:00 21,1 18,9 16 9 - - ENE 1022,5 16 -
12.12.2019 17:00:00 21,1 18,3 13 7 - - ENE 1022,4 16 -
12.12.2019 16:00:00 21,7 18,9 16 9 - - E 1022,9 16 0,0
12.12.2019 15:00:00 23,9 18,9 16 9 - - ENE 1022,7 16 -
12.12.2019 14:00:00 24,4 18,3 15 8 - - E 1023,4 16 -
12.12.2019 13:00:00 24,4 18,3 26 14 - - ENE 1024,2 16 -
12.12.2019 12:00:00 22,8 18,3 26 14 - - NE 1025,2 16 -
12.12.2019 11:00:00 22,2 17,8 24 13 - - NE 1026,2 16 -
12.12.2019 10:00:00 20,6 16,7 18 10 - - NNE 1026,5 16 -
12.12.2019 09:00:00 20,0 16,1 21 11 - - NNE 1026,3 16 -
12.12.2019 08:00:00 18,3 15,0 13 7 - - N 1026,1 16 -
12.12.2019 07:00:00 17,8 13,9 13 7 - - NNE 1025,6 16 -
12.12.2019 06:00:00 17,8 13,3 11 6 - - N 1025,1 16 -
12.12.2019 05:00:00 17,2 13,3 15 8 - - N 1024,9 16 -
12.12.2019 04:00:00 17,8 13,9 21 11 - - N 1024,8 16 -
12.12.2019 03:00:00 18,3 13,9 15 8 - - NNE 1025,1 16 -
12.12.2019 02:00:00 18,3 13,9 15 8 - - NNE 1025,5 16 -
12.12.2019 01:00:00 17,8 13,3 13 7 - - N 1026,0 16 -
12.12.2019 00:00:00 17,8 13,3 18 10 - - NNE 1026,3 16 -
11.12.2019 23:00:00 17,2 13,3 18 10 - - NNE 1026,7 16 -
11.12.2019 22:00:00 17,2 13,3 18 10 - - NNE 1026,6 16 -
11.12.2019 21:00:00 17,2 13,3 26 14 - - NNE 1026,4 16 -
11.12.2019 20:00:00 17,2 13,3 22 12 - - NNE 1026,2 16 -
11.12.2019 19:00:00 17,2 13,9 16 9 - - NNE 1025,7 16 -
11.12.2019 18:00:00 16,7 13,3 26 14 - - NNE 1025,3 16 -
11.12.2019 17:00:00 17,2 13,9 26 14 - - NNE 1024,8 16 -
11.12.2019 16:00:00 18,9 15,6 26 14 - - NNE 1023,9 16 -
11.12.2019 15:00:00 20,6 17,8 22 12 48 26 NNE 1023,1 11 -
11.12.2019 14:00:00 21,7 18,9 22 12 - - NNE 1022,9 16 0,3
11.12.2019 13:00:00 22,8 20,0 16 9 - - ENE 1022,9 16 0,0
11.12.2019 12:00:00 22,8 20,0 9 5 - - N 1023,6 16 -
11.12.2019 11:00:00 23,3 21,1 13 7 - - NNE 1023,8 15 1,3
11.12.2019 10:00:00 21,7 20,6 13 7 - - N 1023,6 4,8 1,3
11.12.2019 09:00:00 21,7 20,6 8 4 - - SSE 1022,9 0,4 1,5
11.12.2019 08:00:00 21,7 20,6 0 0 - - N 1022,3 0,4 -
11.12.2019 07:00:00 21,7 20,0 0 0 - - N 1021,7 0,4 0,3
11.12.2019 06:00:00 21,1 19,4 0 0 - - N 1021,1 11 -
11.12.2019 05:00:00 20,6 18,9 0 0 - - N 1020,4 8 -
11.12.2019 04:00:00 21,1 19,4 9 5 - - SSE 1020,3 10 -
11.12.2019 03:00:00 21,1 19,4 8 4 - - S 1020,3 16 -
11.12.2019 02:00:00 20,6 18,9 0 0 - - N 1020,2 13 -
11.12.2019 01:00:00 21,7 19,4 8 4 - - SSE 1020,3 16 -
11.12.2019 00:00:00 20,6 18,9 0 0 - - N 1020,1 15 -
10.12.2019 23:00:00 21,1 18,9 0 0 - - N 1020,1 16 -
10.12.2019 22:00:00 20,6 18,9 0 0 - - N 1020,0 15 -
10.12.2019 21:00:00 21,1 19,4 0 0 - - N 1019,6 16 -
10.12.2019 20:00:00 22,8 18,9 0 0 - - N 1019,3 16 -
10.12.2019 19:00:00 22,2 18,9 0 0 - - N 1018,7 16 -
10.12.2019 18:00:00 24,4 18,9 0 0 - - N 1018,2 16 -
10.12.2019 17:00:00 27,2 18,9 5 3 - - S 1017,8 16 -
10.12.2019 16:00:00 28,9 18,9 9 5 - - SSW 1017,6 16 -
10.12.2019 15:00:00 29,4 18,9 9 5 - - S 1017,7 16 -
10.12.2019 14:00:00 27,8 18,9 11 6 - - S 1018,1 16 -
10.12.2019 13:00:00 27,8 19,4 11 6 - - S 1018,9 16 -
10.12.2019 12:00:00 26,7 20,0 13 7 - - SSE 1019,8 16 -
10.12.2019 11:00:00 26,1 20,6 9 5 - - S 1020,6 16 -
10.12.2019 10:00:00 22,8 19,4 8 4 - - SSE 1021,1 16 -
10.12.2019 09:00:00 21,1 18,3 5 3 - - SSE 1020,6 16 -
10.12.2019 08:00:00 18,3 16,7 8 4 - - ESE 1020,0 16 -
10.12.2019 07:00:00 16,7 15,0 0 0 - - N 1019,9 11 -
10.12.2019 06:00:00 16,1 14,4 8 4 - - ESE 1019,6 16 -
10.12.2019 05:00:00 16,1 14,4 0 0 - - N 1019,5 16 -
10.12.2019 04:00:00 16,7 15,0 5 3 - - SE 1019,4 15 -
10.12.2019 03:00:00 16,7 15,0 0 0 - - N 1019,4 16 -
10.12.2019 02:00:00 16,7 14,4 0 0 - - N 1019,7 4,0 -
10.12.2019 01:00:00 16,7 14,4 0 0 - - N 1019,9 16 -
10.12.2019 00:00:00 17,2 15,0 0 0 - - N 1019,9 16 -
09.12.2019 23:00:00 17,2 15,0 0 0 - - N 1020,3 16 -
09.12.2019 22:00:00 17,8 15,6 0 0 - - N 1020,2 16 -
09.12.2019 21:00:00 18,3 15,0 0 0 - - N 1020,0 16 -
09.12.2019 20:00:00 18,9 15,6 0 0 - - N 1019,4 16 -
09.12.2019 19:00:00 19,4 16,1 0 0 - - N 1019,0 16 -
09.12.2019 18:00:00 21,7 15,6 0 0 - - N 1018,4 16 -
09.12.2019 17:00:00 25,0 15,6 5 3 - - SSE 1018,0 16 -
09.12.2019 16:00:00 26,7 14,4 11 6 - - S 1017,7 16 -
09.12.2019 15:00:00 26,7 13,9 9 5 - - SSE 1017,7 16 -
09.12.2019 14:00:00 27,2 15,0 13 7 - - SSE 1018,0 16 -
09.12.2019 13:00:00 26,7 15,6 15 8 - - S 1018,7 16 -
09.12.2019 12:00:00 26,1 16,7 15 8 - - S 1020,1 16 -
09.12.2019 11:00:00 24,4 16,7 13 7 - - S 1020,8 16 -
09.12.2019 10:00:00 21,7 16,7 11 6 - - SSE 1021,0 16 -
09.12.2019 09:00:00 20,0 16,7 8 4 - - SSE 1021,0 16 -
09.12.2019 08:00:00 17,2 16,1 5 3 - - SE 1020,3 16 -
09.12.2019 07:00:00 14,4 12,8 0 0 - - N 1020,2 16 -
09.12.2019 06:00:00 15,0 13,3 0 0 - - N 1020,1 8 -
09.12.2019 05:00:00 15,0 13,3 0 0 - - N 1020,0 4,8 -
09.12.2019 04:00:00 16,1 14,4 5 3 - - ESE 1020,0 16 -
09.12.2019 03:00:00 17,2 15,0 5 3 - - ESE 1020,1 16 -
09.12.2019 02:00:00 16,1 14,4 5 3 - - ESE 1020,2 16 -
09.12.2019 01:00:00 16,7 14,4 0 0 - - N 1021,2 16 -
09.12.2019 00:00:00 17,2 14,4 0 0 - - N 1021,4 16 -
08.12.2019 23:00:00 19,4 15,6 5 3 - - E 1021,5 16 -
08.12.2019 22:00:00 19,4 15,6 0 0 - - N 1021,5 16 -
08.12.2019 21:00:00 20,0 15,6 8 4 - - E 1021,5 16 -
08.12.2019 20:00:00 20,6 17,2 11 6 - - E 1021,2 16 -
08.12.2019 19:00:00 21,7 17,2 15 8 - - ENE 1020,9 16 -
08.12.2019 18:00:00 22,2 16,7 15 8 - - NE 1020,5 16 -
08.12.2019 17:00:00 26,1 15,0 11 6 - - ENE 1020,3 16 -
08.12.2019 16:00:00 26,7 14,4 9 5 - - SSE 1020,2 16 -
08.12.2019 15:00:00 26,7 14,4 8 4 - - - 1020,3 16 -
08.12.2019 14:00:00 26,7 15,0 8 4 - - - 1020,8 16 -
08.12.2019 13:00:00 26,7 14,4 8 4 - - - 1021,4 16 -
08.12.2019 12:00:00 25,6 15,6 9 5 - - E 1022,4 16 -
08.12.2019 11:00:00 23,9 16,1 5 3 - - E 1023,2 16 -
08.12.2019 10:00:00 22,2 16,1 8 4 - - N 1023,3 16 -
08.12.2019 09:00:00 18,3 15,6 8 4 - - NNE 1022,8 16 -
08.12.2019 08:00:00 14,4 12,8 0 0 - - N 1022,7 10 -
08.12.2019 07:00:00 14,4 12,8 0 0 - - N 1022,3 10 -
08.12.2019 06:00:00 15,0 13,3 5 3 - - NNE 1021,7 16 -
08.12.2019 05:00:00 15,6 13,9 8 4 - - N 1021,5 16 -
08.12.2019 04:00:00 15,6 13,9 9 5 - - N 1021,5 16 -
08.12.2019 03:00:00 16,1 13,9 9 5 - - N 1021,6 16 -
08.12.2019 02:00:00 16,1 13,9 8 4 - - NNE 1021,6 16 -
08.12.2019 01:00:00 16,1 13,9 5 3 - - NNE 1021,9 16 -
08.12.2019 00:00:00 16,7 13,9 8 4 - - NNE 1022,2 16 -
07.12.2019 23:00:00 16,1 13,3 8 4 - - NNE 1022,7 16 -
07.12.2019 22:00:00 17,2 13,3 16 9 - - NE 1022,3 16 -
07.12.2019 21:00:00 18,3 12,8 15 8 - - NNE 1022,6 16 -
07.12.2019 20:00:00 19,4 12,2 15 8 - - NE 1022,4 16 -
07.12.2019 19:00:00 20,0 11,1 9 5 - - NE 1022,2 16 -
07.12.2019 18:00:00 21,1 11,1 16 9 - - NE 1021,4 16 -
07.12.2019 17:00:00 21,7 12,8 9 5 - - NNE 1021,1 16 -
07.12.2019 16:00:00 22,8 12,2 8 4 - - N 1020,6 16 -
07.12.2019 15:00:00 23,9 11,7 9 5 - - NNE 1020,3 16 -
07.12.2019 14:00:00 24,4 10,0 8 4 - - - 1020,3 16 -
07.12.2019 13:00:00 24,4 12,2 5 3 - - - 1020,9 16 -
07.12.2019 12:00:00 23,3 12,2 9 5 - - E 1021,7 16 -
07.12.2019 11:00:00 22,8 12,2 9 5 - - ENE 1022,3 16 -
07.12.2019 10:00:00 19,4 12,8 8 4 - - SSE 1022,5 16 -
07.12.2019 09:00:00 15,0 9,4 9 5 - - NE 1022,1 16 -
07.12.2019 08:00:00 11,1 7,8 0 0 - - N 1022,2 16 -
07.12.2019 07:00:00 9,4 7,2 0 0 - - N 1021,9 16 -
07.12.2019 06:00:00 10,0 7,2 0 0 - - N 1021,4 16 -
07.12.2019 05:00:00 10,0 7,2 5 3 - - NW 1021,2 16 -
07.12.2019 04:00:00 10,6 8,3 5 3 - - N 1021,2 16 -
07.12.2019 03:00:00 12,2 9,4 0 0 - - N 1021,1 16 -
07.12.2019 02:00:00 12,2 10,0 5 3 - - WNW 1020,9 16 -
07.12.2019 01:00:00 10,6 8,3 0 0 - - N 1020,4 10 -
07.12.2019 00:00:00 11,1 8,3 0 0 - - N 1020,9 16 -
06.12.2019 23:00:00 12,2 8,9 0 0 - - N 1021,6 16 -

tt = temperature
td = dewpoint
ff = wind speed
fx = gusts
dd = wind direction
ppp = reduced air pressure
vv = visibility
rr = precipitation

Next stations